This is the latest recevied weather packets stored in our database for station/object WS2Z. If no packets are shown the sender has not sent any weather packets the latest 10 day(s).
| Time | Temp. | Humidity | Pressure | Rain* | Wind** | Luminosity | Snow |
|---|---|---|---|---|---|---|---|
| 1777252362 | 25° C | 82% | 1012.6 hPa | 0 mm | - | 0 W/m² | - |
| 1777252060 | 25° C | 82% | 1012.6 hPa | 0 mm | - | 0 W/m² | - |
| 1777251756 | 25° C | 81% | 1012.5 hPa | 0 mm | - | 0 W/m² | - |
| 1777251453 | 25° C | 81% | 1012.7 hPa | 0 mm | - | 0 W/m² | - |
| 1777251149 | 25° C | 81% | 1012.6 hPa | 0 mm | - | 0 W/m² | - |
| 1777250846 | 25° C | 81% | 1012.5 hPa | 0 mm | - | 0 W/m² | - |
| 1777250543 | 25° C | 80% | 1012.5 hPa | 0 mm | - | 0 W/m² | - |
| 1777250242 | 25° C | 81% | 1012.6 hPa | 0 mm | - | 0 W/m² | - |
| 1777249940 | 25° C | 80% | 1012.5 hPa | 0 mm | - | 0 W/m² | - |
| 1777249636 | 25° C | 80% | 1012.5 hPa | 0 mm | - | 0 W/m² | - |
| 1777249332 | 25° C | 79% | 1012.6 hPa | 0 mm | - | 0 W/m² | - |
| 1777249029 | 25° C | 79% | 1012.6 hPa | 0 mm | - | 0 W/m² | - |
| 1777248725 | 25° C | 80% | 1012.5 hPa | 0 mm | - | 0 W/m² | - |
| 1777248422 | 25° C | 81% | 1012.4 hPa | 0 mm | - | 0 W/m² | - |
| 1777248119 | 25.56° C | 82% | 1012.3 hPa | 0 mm | - | 1 W/m² | - |
| 1777247816 | 25.56° C | 82% | 1012.2 hPa | 0 mm | - | 2 W/m² | - |
| 1777247514 | 25.56° C | 82% | 1012.3 hPa | 0 mm | - | 4 W/m² | - |
| 1777247212 | 25.56° C | 82% | 1012.1 hPa | 0 mm | - | 8 W/m² | - |
| 1777246909 | 25.56° C | 82% | 1012.3 hPa | 0 mm | - | 13 W/m² | - |
| 1777246605 | 25.56° C | 81% | 1012.2 hPa | 0 mm | - | 15 W/m² | - |
| 1777246302 | 25.56° C | 81% | 1012.3 hPa | 0 mm | - | 17 W/m² | - |
| 1777246000 | 25.56° C | 80% | 1012.2 hPa | 0 mm | - | 19 W/m² | - |
| 1777245698 | 26.11° C | 79% | 1012.1 hPa | 0 mm | - | 23 W/m² | - |
| 1777245395 | 26.11° C | 78% | 1012 hPa | 0 mm | - | 37 W/m² | - |
| 1777245095 | 26.67° C | 78% | 1012 hPa | 0 mm | - | 53 W/m² | - |
* Rain latest hour (hover to see other rain measurements)
** Current wind speed in m/s (hover to see current wind gust speed)